Вернуться в каталог

KUIPER-00604

АктивенСвязьLEO
NORAD 69769·PAYLOAD·🇺🇸 United States

Запущен Jul 2, 2026 с Cape Canaveral Space Force Station

Loading…

Ближайшие Пролёты (ближайшие 24 часа)

TLE

СвежийSource: CelesTrak SupGP

Эпоха: Sep 14, 2026, 21:32 UTC

1 69769C 26151G   26257.89753472  .00003773  00000+0  49495-3 0  2579
2 69769  51.9009 253.9682 0000643  29.6697 210.2426 14.79839323    17

Отслеживайте KUIPER-00604 в реальном времени с AllMySat

Download on the App Store